Location: Unspecified
(0.0000°N, 0.0000°E)
Time: 10:35:00
(UTC+00:00)

ISS - Pass Details

Date: 21 May 2017
Orbit: 401 x 408 km, 51.6° (Epoch: 29 June)

Event Time Altitude Azimuth Distance (km) Brightness Sun altitude
Rises 18:56:52 0° 205° (SSW) 2,332 0.1 -14.1°
Reaches altitude 10° 18:59:01 10° 198° (SSW) 1,470 -1.0 -14.6°
Maximum altitude 19:02:10 42° 126° (SE) 594 -3.5 -15.3°
Enters shadow 19:03:09 32° 81° (E) 728 -3.0 -15.6°
